Weather History for Chicago Executive, IL

Change the Weather History Date:

Wednesday, July 3, 2013

  Actual Average Record
Temperature  
Mean Temperature 67 °F 73 °F  
Max Temperature 73 °F 83 °F 97 °F (2012)
Min Temperature 61 °F 63 °F 54 °F (1996)
Degree Days  
Heating Degree Days 0 0  
Month to date heating degree days 1 0  
Since 1 June heating degree days 58 52  
Since 1 July heating degree days 1 0  
Cooling Degree Days 2 8  
Month to date cooling degree days 4 24  
Year to date cooling degree days 236 220  
Since 1 June cooling degree days 155 178  
Growing Degree Days 16 (Base 50)    
Moisture  
Dew Point 60 °F    
Average Humidity 82    
Maximum Humidity 94    
Minimum Humidity 71    
Precipitation  
Precipitation T in 0.07 in 1.75 in (2004)
Month to date precipitation T 0.21  
Year to date precipitation 16.94 15.41  
Sea Level Pressure  
Sea Level Pressure 30.06 in    
Wind  
Wind Speed 3 mph (North)    
Max Wind Speed 9 mph    
Max Gust Speed 13 mph    
Visibility 7 miles    
Events      
T = Trace of Precipitation, MM = Missing Value Source: NWS Daily Summary

Daily Weather History Graph

Daily Weather History Graph

Search for Another Location

Airport:

Trip Planner

Search our weather history database for the weather conditions in past years. The results will help you decide how hot, cold, wet, or windy it might be!

Date:

Astronomy

Jul. 03, 2013 Rise Set
Actual Time 5:20 AM CDT 8:30 PM CDT
Civil Twilight 4:46 AM CDT 9:05 PM CDT
Nautical Twilight 4:02 AM CDT 9:49 PM CDT
Astronomical Twilight 3:09 AM CDT 10:41 PM CDT
Moon 2:00 AM CDT (7/3) 4:39 PM CDT (7/3)
Length of Visible Light 16h 18m
Length of Day
15h 10m
Waning Crescent, 18% of the Moon is Illuminated
Jul 3
Waning Crescent
Jul 8
New
Jul 15
First Quarter
Jul 22
Full
Jul 29
Last Quarter

Hourly Weather History & Observations

Time (CDT) Temp. Dew Point Humidity Pressure Visibility Wind Dir Wind Speed Gust Speed Precip Events Conditions
12:52 AM 61.0 °F 57.9 °F 90% 30.06 in 5.0 mi NNE 3.5 mph - N/A   Overcast
1:52 AM 62.1 °F 57.9 °F 86% 30.06 in 10.0 mi NNE 4.6 mph - N/A   Overcast
2:52 AM 62.1 °F 57.9 °F 86% 30.04 in 10.0 mi North 4.6 mph - N/A   Overcast
3:52 AM 62.1 °F 57.9 °F 86% 30.04 in 9.0 mi North 5.8 mph - N/A   Overcast
4:04 AM 62.6 °F 57.2 °F 82% 30.04 in 9.0 mi North 5.8 mph - N/A   Overcast
4:52 AM 62.1 °F 57.9 °F 86% 30.04 in 9.0 mi North 4.6 mph - N/A   Overcast
4:59 AM 62.6 °F 57.2 °F 82% 30.04 in 9.0 mi NNE 4.6 mph - N/A   Overcast
5:10 AM 62.6 °F 57.2 °F 82% 30.04 in 10.0 mi North 3.5 mph - N/A   Overcast
5:28 AM 62.6 °F 57.2 °F 82% 30.05 in 10.0 mi NNE 5.8 mph - N/A   Overcast
5:44 AM 62.6 °F 57.2 °F 82% 30.05 in 8.0 mi North 5.8 mph - N/A   Overcast
5:52 AM 62.1 °F 57.9 °F 86% 30.05 in 9.0 mi North 3.5 mph - N/A   Overcast
6:52 AM 62.1 °F 57.9 °F 86% 30.05 in 10.0 mi North 5.8 mph - N/A   Overcast
7:17 AM 62.6 °F 57.2 °F 82% 30.07 in 10.0 mi NNE 3.5 mph - N/A   Overcast
7:52 AM 62.1 °F 57.9 °F 86% 30.07 in 9.0 mi North 3.5 mph - N/A   Overcast
8:23 AM 62.6 °F 57.2 °F 82% 30.07 in 9.0 mi North 4.6 mph - N/A   Overcast
8:30 AM 62.6 °F 57.2 °F 82% 30.08 in 8.0 mi North 4.6 mph - N/A   Overcast
8:52 AM 63.0 °F 57.9 °F 84% 30.08 in 10.0 mi NNW 8.1 mph - 0.00 in   Overcast
9:52 AM 64.0 °F 59.0 °F 84% 30.08 in 8.0 mi North 5.8 mph - N/A   Overcast
10:52 AM 66.0 °F 59.0 °F 78% 30.08 in 9.0 mi Calm Calm - N/A   Overcast
11:06 AM 66.2 °F 59.0 °F 78% 30.08 in 9.0 mi Calm Calm - N/A   Overcast
11:52 AM 66.0 °F 59.0 °F 78% 30.08 in 8.0 mi Calm Calm - N/A   Overcast
12:52 PM 66.0 °F 59.0 °F 78% 30.07 in 8.0 mi Calm Calm - N/A   Overcast
1:52 PM 66.0 °F 60.1 °F 81% 30.07 in 5.0 mi ENE 4.6 mph - N/A   Haze
2:52 PM 66.9 °F 62.1 °F 84% 30.06 in 6.0 mi NNE 4.6 mph - N/A   Haze
2:57 PM 66.2 °F 60.8 °F 83% 30.07 in 6.0 mi Variable 3.5 mph - N/A   Haze
3:52 PM 71.1 °F 62.1 °F 73% 30.05 in 6.0 mi Variable 4.6 mph - N/A   Haze
3:59 PM 71.6 °F 62.6 °F 73% 30.05 in 6.0 mi Variable 5.8 mph - N/A   Haze
4:03 PM 71.6 °F 62.6 °F 73% 30.05 in 6.0 mi Calm Calm - N/A   Haze
4:52 PM 72.0 °F 62.1 °F 71% 30.04 in 5.0 mi West 6.9 mph - N/A   Haze
4:59 PM 71.6 °F 62.6 °F 73% 30.05 in 5.0 mi WSW 3.5 mph - N/A   Haze
5:09 PM 71.6 °F 62.6 °F 73% 30.05 in 6.0 mi Calm Calm - N/A   Haze
5:52 PM 72.0 °F 63.0 °F 73% 30.04 in 6.0 mi Calm Calm - N/A   Haze
5:59 PM 71.6 °F 62.6 °F 73% 30.04 in 6.0 mi SW 3.5 mph - N/A   Haze
6:52 PM 68.0 °F 63.0 °F 84% 30.05 in 5.0 mi SE 5.8 mph - N/A   Haze
7:52 PM 66.9 °F 63.0 °F 87% 30.05 in 4.0 mi East 3.5 mph - 0.00 in   Overcast
8:52 PM 66.0 °F 63.0 °F 90% 30.05 in 5.0 mi ESE 3.5 mph - N/A   Overcast
9:52 PM 66.0 °F 62.1 °F 87% 30.07 in 5.0 mi Calm Calm - N/A   Overcast
9:59 PM 64.4 °F 62.6 °F 94% 30.08 in 5.0 mi Calm Calm - N/A   Partly Cloudy
10:52 PM 64.0 °F 61.0 °F 90% 30.08 in 4.0 mi Calm Calm - N/A   Partly Cloudy
11:52 PM 63.0 °F 61.0 °F 93% 30.08 in 4.0 mi Calm Calm - N/A   Mostly Cloudy